Total_Precipitation_Accumulation
0.00 0.00 0.00 0.00 0.00 0.00 0.00 0.00 0.00 0.00 0.00 0.00 0.00 0.00 0.00 0.00 0.00 0.00 0.00 0.00 0.00 0.00 0.00 0.00 -0.00 -0.00 -0.01 -0.02 -0.02 -0.02 -0.07 -0.07 -0.20 -0.20 -0.23 -0.44 -0.44 -0.41 -0.73 -0.83 -0.83 -1.00 -1.08 -0.97 -0.72 -0.72 -0.45 -0.02 0.03 0.03 0.09 0.10 0.09 0.09 0.07 -0.00 -0.00 -0.26 -0.02 0.01 0.01 -0.04 -0.03 -0.03 -0.05 -0.05 -0.05 0.28 0.34 0.34 0.15 0.07 0.00 0.00 -0.02 0.00 0.00 0.01 0.03 0.09 0.09 0.11 0.00 -0.00 0.18 0.18 0.07 0.01 -0.02 -0.02 -0.01 -0.00 0.00 0.00 0.00 0.01 0.01 0.03 0.01 0.00 0.00 0.01 0.00
0.00 0.00 0.00 0.00 0.00 0.00 0.00 0.00 0.00 0.00 0.00 0.00 0.00 0.00 0.00 0.00 0.00 0.00 0.00 0.00 0.00 0.00 0.00 0.00 -0.00 -0.00 -0.00 -0.03 -0.04 -0.04 -0.07 -0.10 -0.16 -0.16 -0.24 -0.24 -0.24 -0.24 -0.37 -0.70 -0.70 -0.95 -1.01 -0.85 -0.75 -0.75 -0.54 -0.06 0.02 0.02 0.06 0.09 0.10 0.10 0.07 0.05 0.05 0.03 -0.00 -0.00 -0.00 -0.02 -0.03 -0.04 -0.04 -0.04 0.03 -0.04 0.33 0.33 0.34 0.09 0.05 0.05 -0.01 0.01 0.01 0.01 0.06 0.24 0.24 0.12 0.02 -0.01 0.20 0.20 0.05 -0.01 -0.02 -0.02 -0.01 -0.00 0.00 0.00 0.00 0.00 0.00 0.02 0.01 0.00 0.00 0.00 0.00
0.00 0.00 0.00 0.00 0.00 0.00 0.00 0.00 0.00 0.00 0.00 0.00 0.00 0.00 0.00 0.00 0.00 0.00 0.00 0.00 0.00 0.00 0.00 0.00 0.00 0.00 -0.00 -0.01 -0.11 -0.11 -0.05 -0.11 -0.23 -0.23 -0.23 -0.23 -0.23 -0.15 -0.21 -0.44 -0.44 -0.62 -0.98 -0.77 -0.49 -0.49 -0.52 -0.33 0.01 0.01 0.02 0.07 0.09 0.09 0.07 0.05 0.05 0.03 0.02 0.01 0.01 -0.02 -0.03 -0.04 -0.02 -0.02 0.03 0.08 0.32 0.32 0.34 0.15 0.05 0.05 0.02 0.01 0.01 0.01 0.18 0.23 0.23 0.08 0.00 -0.01 0.19 0.19 0.22 -0.02 -0.01 -0.01 -0.01 0.00 0.00 0.00 0.00 0.00 0.00 0.00 0.00 0.00 0.00 0.00 0.00
0.00 0.00 0.00 0.00 0.00 0.00 0.00 0.00 0.00 0.00 0.00 0.00 0.00 0.00 0.00 0.00 0.00 0.00 0.00 0.00 0.00 0.00 0.00 0.00 0.00 0.00 -0.00 -0.01 -0.06 -0.06 -0.11 -0.06 -0.24 -0.24 -0.27 -0.24 -0.24 -0.19 -0.12 -0.19 -0.19 -0.35 -0.55 -0.59 -0.55 -0.55 -0.29 -0.21 -0.01 -0.01 0.02 0.07 0.08 0.08 0.07 0.06 0.06 0.01 0.02 0.01 0.01 -0.02 -0.03 -0.07 -0.06 -0.06 0.13 0.10 0.20 0.20 0.32 0.29 0.06 0.06 0.03 0.05 0.05 0.01 0.13 0.19 0.19 0.25 -0.01 -0.00 0.13 0.13 0.17 0.01 -0.01 -0.01 -0.01 0.00 0.00 0.00 0.00 0.00 0.00 0.00 0.00 0.00 0.00 0.00 0.00
0.00 0.00 0.00 -0.00 -0.00 -0.00 -0.00 0.00 0.00 0.00 0.00 0.00 0.00 0.00 0.00 0.00 0.00 0.00 0.00 0.00 0.00 0.00 -0.00 -0.00 -0.00 -0.00 -0.01 -0.01 -0.04 -0.04 -0.09 -0.08 -0.18 -0.18 -0.34 -0.27 -0.27 -0.26 -0.17 -0.13 -0.13 -0.22 -0.27 -0.27 -0.36 -0.36 -0.21 -0.05 -0.05 -0.05 0.03 0.04 0.09 0.09 0.09 0.06 0.06 0.01 0.02 0.01 0.01 -0.02 -0.02 -0.01 -0.05 -0.05 0.05 0.18 0.20 0.20 0.29 0.25 0.19 0.19 -0.00 0.00 0.00 0.06 0.06 0.16 0.16 0.22 0.17 -0.00 -0.00 -0.00 0.15 0.01 -0.00 -0.00 -0.00 0.00 0.00 0.00 0.00 0.00 0.00 0.00 0.00 0.00 0.00 0.00 0.00
0.00 -0.00 -0.00 -0.00 -0.00 -0.00 0.00 0.00 0.00 0.00 -0.00 0.00 0.00 0.00 0.00 0.00 0.00 0.00 0.00 0.00 0.00 0.00 -0.00 -0.00 -0.00 -0.00 -0.01 -0.01 -0.03 -0.03 -0.08 -0.14 -0.21 -0.21 -0.34 -0.36 -0.36 -0.29 -0.19 -0.13 -0.13 -0.14 -0.13 -0.06 -0.17 -0.17 -0.22 -0.03 -0.00 -0.00 0.03 0.04 0.08 0.08 0.08 0.07 0.07 0.01 0.04 0.01 0.01 0.01 -0.02 -0.01 -0.03 -0.03 0.04 0.25 0.20 0.20 0.24 0.23 0.17 0.17 -0.00 -0.00 -0.00 0.03 0.02 0.08 0.08 0.16 0.12 -0.00 -0.01 -0.01 0.17 0.01 -0.00 -0.00 0.00 0.00 0.00 0.00 0.00 0.00 0.00 0.00 0.00 0.00 0.00 0.00 0.00
0.00 0.00 0.00 0.00 0.00 0.00 0.00 0.00 0.00 0.00 0.00 0.00 0.00 0.00 0.00 0.00 0.00 0.00 0.00 0.00 0.00 0.00 -0.00 -0.00 -0.00 -0.00 -0.00 -0.01 -0.02 -0.02 -0.07 -0.11 -0.28 -0.28 -0.41 -0.56 -0.56 -0.35 -0.22 -0.11 -0.11 -0.10 -0.08 -0.01 -0.05 -0.05 -0.09 -0.02 -0.00 -0.00 0.03 0.04 0.06 0.06 0.08 0.09 0.09 0.04 0.04 0.01 0.01 0.01 -0.01 -0.01 -0.01 -0.01 -0.00 0.24 0.18 0.18 0.29 0.25 0.17 0.17 0.11 -0.00 -0.00 0.00 0.00 0.00 0.00 0.09 0.09 -0.00 -0.01 -0.01 0.14 0.10 -0.00 -0.00 0.00 0.00 0.00 0.00 0.00 0.00 0.00 0.00 0.00 0.00 0.00 0.00 0.00
-0.00 0.00 -0.00 0.00 0.00 0.00 0.00 0.00 0.00 0.00 0.00 0.00 0.00 0.00 0.00 0.00 0.00 0.00 0.00 0.00 0.00 0.00 0.00 0.00 -0.00 -0.00 -0.00 -0.01 -0.02 -0.02 -0.07 -0.09 -0.22 -0.22 -0.50 -0.77 -0.77 -0.57 -0.36 -0.13 -0.13 -0.10 -0.03 -0.02 -0.01 -0.01 -0.03 -0.05 0.00 0.00 0.01 0.04 0.06 0.06 0.08 0.10 0.10 0.06 0.05 0.03 0.03 0.01 -0.01 -0.01 -0.01 -0.01 -0.00 0.20 0.25 0.25 0.35 0.34 0.19 0.19 0.12 0.03 0.03 0.00 0.00 -0.01 -0.01 0.04 0.08 0.00 0.02 0.02 0.12 0.09 0.00 0.00 0.00 0.00 0.00 0.00 0.00 0.00 0.00 0.00 0.00 0.00 0.00 0.00 0.00
0.00 0.00 0.00 0.00 0.00 0.00 0.00 0.00 0.00 0.00 0.00 0.00 0.00 0.00 0.00 0.00 0.00 0.00 0.00 0.00 0.00 0.00 0.00 0.00 0.00 0.00 0.00 -0.01 -0.01 -0.01 -0.03 -0.09 -0.06 -0.06 -0.36 -0.65 -0.65 -0.87 -0.52 -0.18 -0.18 -0.10 -0.09 -0.00 -0.00 -0.00 -0.06 -0.07 0.00 0.00 0.01 0.04 0.05 0.05 0.08 0.10 0.10 0.08 0.04 0.03 0.03 0.01 0.00 -0.01 -0.01 -0.01 -0.00 0.15 0.23 0.23 0.31 0.33 0.35 0.35 0.13 0.04 0.04 0.00 0.00 -0.01 -0.01 -0.02 0.03 0.01 0.04 0.04 0.07 0.11 0.01 0.01 0.00 0.00 0.00 0.00 0.01 0.01 0.01 0.00 0.00 0.00 0.00 0.01 0.00
0.00 0.00 0.00 0.00 0.00 0.00 0.00 0.00 0.00 0.00 0.00 0.00 0.00 0.00 0.00 0.00 0.00 0.00 0.00 0.00 0.00 0.00 0.00 0.00 0.00 0.00 -0.00 -0.00 -0.01 -0.01 -0.02 -0.08 -0.09 -0.09 -0.17 -0.42 -0.42 -1.05 -0.86 -0.51 -0.51 -0.17 -0.10 -0.00 0.00 0.00 -0.06 -0.07 -0.05 -0.05 0.00 0.02 0.05 0.05 0.08 0.08 0.08 0.07 -0.02 0.03 0.03 0.02 0.01 -0.02 -0.01 -0.01 -0.00 -0.00 0.36 0.36 0.42 0.31 0.31 0.31 0.38 0.08 0.08 0.00 0.00 -0.03 -0.03 -0.06 -0.01 -0.01 0.01 0.01 0.08 0.19 0.01 0.01 0.00 0.00 0.00 0.00 0.00 0.00 0.00 0.00 0.00 0.00 0.00 0.00 0.00
0.00 0.00 0.00 0.00 0.00 0.00 0.00 0.00 0.00 0.00 0.00 0.00 0.00 0.00 0.00 0.00 0.00 0.00 0.00 0.00 0.00 0.00 0.00 0.00 0.00 0.00 -0.00 -0.01 -0.01 -0.01 -0.02 -0.08 -0.09 -0.09 -0.10 -0.38 -0.38 -0.68 -1.06 -0.84 -0.84 -0.25 -0.20 -0.00 -0.00 -0.00 -0.01 -0.07 -0.05 -0.05 0.00 0.01 0.04 0.04 0.05 0.07 0.07 0.07 0.06 0.04 0.04 0.02 0.01 -0.02 -0.01 -0.01 -0.09 0.00 0.37 0.37 0.48 0.47 0.27 0.27 0.36 0.13 0.13 0.00 -0.00 -0.05 -0.05 -0.04 -0.01 -0.01 -0.01 -0.01 0.07 0.14 0.02 0.02 0.00 0.00 0.00 0.00 0.00 0.03 0.03 0.00 0.00 0.00 0.00 0.01 0.00
0.00 0.00 0.00 0.00 0.00 0.00 -0.00 -0.00 0.00 0.00 0.00 0.00 0.00 0.00 0.00 0.00 0.00 0.00 0.00 0.00 0.00 0.00 0.00 0.00 0.00 0.00 -0.01 -0.01 -0.02 -0.02 -0.02 -0.03 -0.08 -0.08 -0.08 -0.42 -0.42 -0.65 -0.93 -1.07 -1.07 -0.42 -0.35 -0.19 -0.01 -0.01 -0.01 -0.04 -0.03 -0.03 0.00 0.01 0.02 0.02 0.03 0.06 0.06 0.08 0.06 -0.05 -0.05 0.02 0.02 -0.01 -0.03 -0.03 -0.09 0.00 0.18 0.18 0.56 0.48 0.25 0.25 0.33 0.28 0.28 0.09 -0.00 -0.05 -0.05 -0.03 -0.03 -0.01 -0.00 -0.00 0.00 0.10 0.08 0.08 0.00 0.00 0.00 0.00 0.00 0.02 0.02 0.00 0.00 0.00 0.00 0.01 0.00
0.00 0.00 0.00 0.00 0.00 0.00 0.00 0.00 0.00 0.00 -0.00 -0.00 -0.00 -0.00 -0.00 -0.00 -0.00 -0.00 0.00 0.00 0.00 0.00 0.00 0.00 -0.00 -0.00 -0.01 -0.02 -0.02 -0.02 -0.03 -0.03 -0.05 -0.05 -0.06 -0.51 -0.51 -0.75 -0.70 -0.91 -0.91 -1.03 -0.65 -0.35 -0.12 -0.12 -0.07 -0.02 -0.05 -0.05 -0.03 0.00 0.01 0.01 0.02 0.04 0.04 0.06 0.06 0.04 0.04 -0.00 0.02 0.01 -0.01 -0.01 -0.12 0.00 0.09 0.09 0.53 0.55 0.48 0.48 0.26 0.23 0.23 0.19 -0.01 -0.05 -0.05 -0.02 -0.01 -0.00 -0.00 -0.00 0.00 0.06 0.06 0.06 0.02 0.00 0.00 0.00 0.00 0.02 0.02 0.00 0.00 0.00 0.00 0.00 0.00
0.00 0.00 0.00 0.00 0.00 0.00 0.00 0.00 -0.00 -0.00 -0.00 -0.00 -0.00 -0.00 -0.00 -0.00 -0.00 0.00 0.00 0.00 0.00 0.00 0.00 0.00 -0.00 -0.00 -0.00 -0.02 -0.02 -0.02 -0.02 -0.03 -0.03 -0.03 -0.02 -0.23 -0.23 -0.90 -0.88 -0.62 -0.62 -0.59 -0.96 -0.61 -0.47 -0.47 -0.14 -0.04 -0.04 -0.04 -0.03 0.01 0.01 0.01 0.01 0.02 0.02 0.04 0.06 0.04 0.04 0.03 0.02 0.02 -0.03 -0.03 -0.09 -0.09 0.12 0.12 0.50 0.66 0.60 0.60 0.30 0.21 0.21 0.19 0.06 0.03 0.03 -0.01 -0.00 -0.00 -0.00 -0.00 0.00 0.02 0.03 0.03 0.02 0.01 0.00 0.00 0.00 0.01 0.01 0.00 0.00 0.00 0.00 0.00 0.01
0.00 0.00 0.00 0.00 -0.00 -0.00 -0.00 -0.00 -0.00 -0.00 -0.00 -0.00 -0.00 -0.00 -0.00 -0.00 -0.00 -0.00 -0.00 -0.00 -0.00 0.00 0.00 0.00 -0.00 -0.00 -0.00 -0.02 -0.02 -0.02 -0.02 -0.03 -0.03 -0.03 -0.02 -0.20 -0.20 -1.15 -1.11 -0.60 -0.60 -0.57 -0.66 -1.04 -0.61 -0.61 -0.18 -0.04 -0.01 -0.01 -0.02 -0.01 0.01 0.01 0.01 0.02 0.02 0.03 0.04 0.04 0.04 0.03 0.02 0.02 0.01 0.01 -0.08 -0.09 0.11 0.11 0.48 0.66 0.72 0.72 0.41 0.18 0.18 0.16 0.14 0.06 0.06 -0.00 -0.00 0.00 -0.00 -0.00 0.00 0.02 0.03 0.03 0.01 0.01 0.00 0.00 0.00 0.01 0.01 0.01 0.00 0.00 0.00 0.00 0.01
-0.00 -0.00 -0.00 -0.00 -0.00 -0.00 -0.00 -0.00 -0.00 -0.00 -0.00 -0.00 -0.00 -0.00 -0.00 -0.00 -0.00 -0.00 -0.00 -0.00 -0.00 0.00 0.00 0.00 0.00 0.00 -0.00 -0.01 -0.02 -0.02 -0.02 -0.03 -0.03 -0.03 -0.02 -0.12 -0.12 -1.19 -1.36 -1.19 -1.19 -0.83 -0.65 -1.26 -0.93 -0.93 -0.53 -0.08 -0.01 -0.01 -0.02 -0.00 0.01 0.01 0.01 0.01 0.01 0.02 0.02 0.03 0.03 0.03 0.03 0.02 0.04 0.04 -0.05 -0.03 -0.01 -0.01 0.45 0.64 0.69 0.69 0.57 0.38 0.38 0.14 0.16 0.08 0.08 0.02 -0.00 -0.00 0.00 0.00 0.00 0.02 0.02 0.02 0.02 0.02 0.00 0.00 0.00 0.01 0.01 0.01 0.00 0.00 0.00 0.00 0.01
-0.00 -0.00 -0.00 -0.00 -0.00 -0.00 -0.00 -0.00 -0.00 -0.00 -0.00 -0.00 -0.00 -0.00 -0.00 -0.00 -0.00 -0.00 -0.00 -0.00 -0.00 -0.00 0.00 0.00 0.00 0.00 -0.00 -0.01 -0.02 -0.02 -0.02 -0.02 -0.02 -0.02 -0.02 -0.05 -0.05 -0.41 -1.38 -1.49 -1.49 -1.21 -0.95 -0.83 -1.20 -1.20 -0.77 -0.24 -0.00 -0.00 -0.00 0.00 0.01 0.01 0.01 0.01 0.01 0.01 0.02 0.02 0.02 0.03 0.03 0.04 0.04 0.04 0.07 0.11 0.13 0.13 0.25 0.59 0.64 0.64 0.66 0.43 0.43 0.29 0.13 0.11 0.11 0.04 -0.00 -0.01 0.00 0.00 0.00 -0.00 0.01 0.01 0.01 0.02 0.00 0.00 0.00 0.00 0.00 0.01 0.01 0.00 0.00 0.00 0.00
-0.00 -0.00 -0.00 -0.00 -0.00 -0.00 -0.00 -0.00 -0.00 -0.00 -0.00 -0.00 -0.00 -0.00 -0.00 0.00 0.00 -0.00 0.00 -0.00 -0.00 -0.00 0.00 0.00 0.00 0.00 0.00 -0.01 -0.02 -0.02 -0.03 -0.02 -0.02 -0.02 -0.02 -0.03 -0.03 -0.23 -1.17 -1.47 -1.47 -1.59 -1.32 -1.01 -1.12 -1.12 -1.17 -0.49 -0.10 -0.10 -0.01 0.00 0.02 0.02 0.03 0.01 0.01 0.01 0.01 0.02 0.02 0.02 0.03 0.01 -0.01 -0.01 0.06 0.22 0.20 0.20 0.28 0.53 0.58 0.58 0.67 0.42 0.42 0.29 0.18 0.08 0.08 0.08 -0.00 -0.01 -0.00 -0.00 -0.00 -0.00 0.02 0.02 0.01 0.03 0.02 0.02 0.00 0.00 0.00 0.01 0.01 0.00 0.00 0.00 0.00
-0.00 -0.00 -0.00 -0.00 -0.00 -0.00 -0.00 -0.00 -0.00 -0.00 -0.00 -0.00 -0.00 -0.00 -0.00 -0.00 -0.00 -0.00 0.00 0.00 0.00 0.00 0.00 0.00 0.00 0.00 -0.00 -0.01 -0.03 -0.03 -0.03 -0.03 -0.03 -0.03 -0.02 -0.03 -0.03 -0.11 -0.52 -1.23 -1.23 -1.33 -1.60 -1.39 -0.90 -0.90 -1.27 -1.35 -0.35 -0.35 -0.08 -0.00 0.01 0.01 0.03 0.03 0.03 0.01 0.01 0.02 0.02 0.02 0.01 -0.01 -0.00 -0.00 0.07 0.19 0.27 0.27 0.37 0.39 0.54 0.54 0.60 0.59 0.59 0.34 0.22 0.06 0.06 0.06 0.03 -0.00 -0.00 -0.00 -0.00 -0.00 0.02 0.02 0.01 0.03 0.02 0.02 0.00 0.00 0.00 0.01 0.00 0.00 0.00 0.00 0.00
-0.00 -0.00 -0.01 -0.00 -0.00 -0.00 -0.00 -0.00 0.00 0.00 -0.00 -0.00 -0.00 -0.00 -0.00 -0.00 -0.00 -0.00 0.00 0.00 0.00 0.00 0.00 0.00 0.00 0.00 -0.01 -0.02 -0.03 -0.03 -0.03 -0.03 -0.04 -0.04 -0.05 -0.04 -0.04 -0.02 -0.25 -1.02 -1.02 -0.98 -0.81 -1.28 -1.46 -1.46 -1.05 -1.08 -1.37 -1.37 -0.53 -0.11 -0.06 -0.06 -0.03 0.02 0.02 0.05 -0.04 -0.03 -0.03 0.02 0.01 -0.03 0.01 0.01 -0.03 0.13 0.22 0.22 0.31 0.44 0.44 0.44 0.58 0.63 0.63 0.51 0.29 0.25 0.25 0.16 0.02 -0.00 -0.00 -0.00 -0.00 -0.01 -0.00 -0.00 0.01 0.02 0.04 0.04 0.00 0.00 0.00 0.00 0.00 0.00 0.00 0.00 0.00
-0.01 -0.00 -0.01 -0.00 -0.00 -0.00 0.00 0.00 -0.00 -0.00 -0.00 -0.00 0.00 0.00 0.00 0.00 0.00 0.00 0.00 0.00 0.00 0.00 0.00 0.00 0.00 0.00 -0.00 -0.02 -0.03 -0.03 -0.02 -0.03 -0.04 -0.04 -0.05 -0.05 -0.05 -0.03 -0.15 -0.45 -0.45 -0.95 -0.71 -0.83 -1.22 -1.22 -1.17 -1.07 -1.14 -1.14 -0.86 -0.30 -0.17 -0.17 -0.03 0.00 0.00 0.02 -0.03 -0.06 -0.06 -0.00 0.02 0.00 0.01 0.01 -0.00 0.02 0.17 0.17 0.30 0.40 0.43 0.43 0.58 0.58 0.58 0.54 0.46 0.32 0.32 0.22 0.11 -0.00 -0.00 -0.00 0.00 -0.01 -0.00 -0.00 0.02 0.02 0.06 0.06 0.00 0.00 0.00 0.00 0.00 0.00 0.00 0.00 0.00
-0.00 -0.00 -0.00 -0.00 -0.00 -0.00 -0.00 -0.00 -0.00 -0.00 0.00 -0.00 0.00 0.00 0.00 0.00 0.00 0.00 0.00 0.00 0.00 0.00 0.00 0.01 0.00 0.00 -0.00 -0.02 -0.02 -0.02 -0.02 -0.03 -0.04 -0.04 -0.05 -0.05 -0.05 -0.05 -0.14 -0.38 -0.38 -0.83 -0.67 -0.49 -0.80 -0.80 -0.77 -1.10 -1.02 -1.02 -1.18 -0.53 -0.27 -0.27 -0.12 -0.01 -0.01 -0.01 -0.04 -0.05 -0.05 -0.07 0.02 0.01 -0.06 -0.06 -0.02 0.03 0.18 0.18 0.33 0.39 0.41 0.41 0.56 0.62 0.62 0.56 0.47 0.46 0.46 0.33 0.18 0.08 0.00 0.00 0.00 -0.00 -0.00 -0.00 0.01 0.03 0.07 0.07 0.05 0.00 0.00 0.00 0.00 0.00 0.00 0.00 0.00
-0.00 -0.00 -0.00 -0.00 -0.00 -0.00 -0.00 0.00 0.00 0.00 0.00 0.00 0.00 0.00 0.00 0.00 0.00 0.00 0.00 0.00 0.00 0.01 0.01 0.01 0.00 0.00 -0.00 -0.02 -0.02 -0.02 -0.02 -0.03 -0.04 -0.04 -0.05 -0.04 -0.04 -0.05 -0.19 -0.38 -0.38 -0.62 -0.65 -0.50 -0.50 -0.50 -0.53 -0.75 -0.97 -0.97 -0.93 -0.93 -0.40 -0.40 -0.16 -0.02 -0.02 -0.02 -0.05 -0.07 -0.07 -0.08 -0.04 -0.03 -0.10 -0.10 -0.02 0.04 0.09 0.09 0.33 0.40 0.31 0.31 0.53 0.58 0.58 0.63 0.59 0.47 0.47 0.44 0.29 0.12 0.00 0.00 0.00 0.00 -0.00 -0.00 0.01 0.03 0.07 0.07 0.05 0.01 0.01 0.00 0.00 0.00 0.00 0.00 0.00
-0.00 -0.00 -0.00 -0.00 0.00 0.00 0.00 0.00 0.00 0.00 0.00 0.00 0.00 0.00 0.00 0.00 0.00 0.00 0.00 0.00 0.00 0.01 0.01 0.01 0.00 0.00 -0.01 -0.01 -0.02 -0.02 -0.02 -0.03 -0.04 -0.04 -0.05 -0.04 -0.04 -0.06 -0.21 -0.46 -0.46 -0.56 -0.65 -0.52 -0.42 -0.42 -0.39 -0.48 -0.81 -0.81 -0.77 -0.70 -0.40 -0.40 -0.20 -0.11 -0.11 -0.04 -0.04 -0.09 -0.09 -0.05 -0.03 -0.06 -0.16 -0.16 -0.15 0.00 0.05 0.05 0.17 0.38 0.43 0.43 0.48 0.54 0.54 0.60 0.65 0.54 0.54 0.44 0.30 0.20 0.04 0.04 0.00 -0.00 -0.00 -0.00 0.00 0.03 0.05 0.05 0.04 0.00 0.00 0.00 0.00 0.00 0.00 0.00 0.00
-0.00 -0.00 -0.00 -0.00 -0.00 -0.00 0.00 0.00 0.00 0.00 0.00 0.00 0.00 0.00 0.00 0.00 0.00 0.00 0.00 0.00 0.00 0.01 0.01 0.01 0.00 0.00 -0.01 -0.01 -0.02 -0.02 -0.01 -0.02 -0.04 -0.04 -0.04 -0.04 -0.04 -0.08 -0.27 -0.59 -0.59 -0.60 -0.59 -0.55 -0.44 -0.44 -0.29 -0.32 -0.43 -0.43 -0.63 -0.56 -0.35 -0.35 -0.18 -0.10 -0.10 -0.05 -0.06 -0.09 -0.09 -0.08 -0.06 -0.07 -0.19 -0.19 -0.16 -0.04 0.06 0.06 0.13 0.43 0.43 0.43 0.49 0.53 0.53 0.55 0.65 0.64 0.64 0.49 0.43 0.23 0.05 0.05 0.00 0.00 0.00 0.00 0.00 0.03 0.07 0.07 0.06 0.00 0.00 0.00 0.00 0.00 0.00 0.00 0.00
-0.01 -0.01 -0.00 -0.00 -0.00 -0.00 -0.00 -0.00 -0.00 -0.00 0.00 0.00 0.00 0.00 0.00 0.00 0.00 0.00 0.00 0.01 0.01 0.01 0.01 0.01 0.00 0.00 -0.01 -0.01 -0.02 -0.02 -0.01 -0.03 -0.04 -0.04 -0.04 -0.04 -0.04 -0.10 -0.35 -0.79 -0.79 -0.76 -0.69 -0.51 -0.47 -0.47 -0.35 -0.21 -0.28 -0.28 -0.45 -0.35 -0.30 -0.30 -0.14 -0.07 -0.07 -0.06 -0.07 -0.10 -0.10 -0.13 -0.07 -0.11 -0.22 -0.22 -0.20 -0.10 0.06 0.06 0.15 0.26 0.47 0.47 0.49 0.55 0.55 0.55 0.62 0.73 0.73 0.60 0.46 0.36 0.06 0.06 0.00 0.00 0.00 0.00 0.00 -0.00 0.07 0.07 0.05 0.01 0.01 0.00 0.00 0.00 0.00 0.00 0.00
-0.01 -0.01 -0.00 -0.01 -0.00 -0.00 -0.00 -0.00 -0.00 -0.00 0.00 0.00 0.00 0.00 0.00 0.00 0.00 0.00 0.00 0.01 0.01 0.01 0.01 0.01 0.00 0.00 -0.01 -0.01 -0.01 -0.01 -0.02 -0.05 -0.05 -0.05 -0.05 -0.05 -0.05 -0.16 -0.42 -0.76 -0.76 -1.06 -0.86 -0.61 -0.42 -0.42 -0.32 -0.14 -0.18 -0.18 -0.23 -0.21 -0.23 -0.23 -0.16 -0.04 -0.04 -0.06 -0.08 -0.11 -0.11 -0.10 -0.13 -0.15 -0.18 -0.18 -0.21 -0.08 0.09 0.09 0.13 0.25 0.43 0.43 0.50 0.53 0.53 0.60 0.60 0.72 0.72 0.82 0.52 0.39 0.22 0.22 0.00 0.00 0.00 0.00 -0.00 -0.01 0.01 0.01 0.04 0.01 0.01 0.00 0.00 0.00 0.00 0.00 0.00
-0.01 -0.01 -0.01 -0.01 -0.01 -0.01 -0.00 -0.00 -0.00 -0.00 -0.00 0.00 0.00 0.00 0.00 0.00 0.00 0.01 0.01 0.01 0.01 0.01 0.01 0.01 0.00 0.00 0.00 -0.01 -0.00 -0.00 -0.03 -0.07 -0.07 -0.07 -0.05 -0.06 -0.06 -0.07 -0.38 -0.75 -0.75 -1.27 -1.13 -0.76 -0.44 -0.44 -0.35 -0.19 -0.10 -0.10 -0.14 -0.10 -0.13 -0.13 -0.12 -0.03 -0.03 -0.07 -0.09 -0.10 -0.10 -0.05 -0.05 -0.17 -0.21 -0.21 -0.31 -0.04 0.11 0.11 0.17 0.30 0.45 0.45 0.51 0.53 0.53 0.61 0.55 0.70 0.70 0.92 0.87 0.44 0.23 0.23 0.09 0.00 0.00 0.00 0.00 -0.01 0.00 0.00 0.04 0.01 0.01 0.00 0.00 0.00 0.00 0.00 0.00
-0.02 -0.02 -0.02 -0.01 -0.01 -0.01 -0.01 -0.01 -0.00 -0.00 -0.00 -0.00 0.00 0.00 0.00 0.00 0.00 0.01 0.01 0.01 0.01 0.01 0.01 0.01 -0.00 -0.00 -0.01 -0.01 0.00 0.00 -0.01 -0.08 -0.09 -0.09 -0.06 -0.07 -0.07 -0.08 -0.32 -0.65 -0.65 -0.99 -1.28 -0.97 -0.57 -0.57 -0.38 -0.24 -0.04 -0.04 -0.07 -0.05 -0.06 -0.06 -0.07 -0.06 -0.06 -0.09 -0.12 -0.16 -0.16 -0.05 -0.03 -0.07 -0.21 -0.21 -0.36 -0.25 0.13 0.13 0.19 0.28 0.47 0.47 0.53 0.55 0.55 0.58 0.53 0.55 0.55 0.93 0.92 0.80 0.24 0.24 0.10 0.02 0.00 0.00 -0.00 -0.01 0.00 0.00 0.01 0.02 0.02 0.00 0.00 0.00 0.00 0.00 0.00
-0.03 -0.03 -0.03 -0.02 -0.02 -0.02 -0.02 -0.01 -0.01 -0.01 -0.00 -0.00 -0.00 -0.00 -0.00 0.00 0.00 0.01 0.01 0.01 0.01 0.01 0.01 0.01 0.00 0.00 -0.00 -0.00 0.00 0.00 -0.00 -0.09 -0.08 -0.08 -0.06 -0.07 -0.07 -0.09 -0.27 -0.50 -0.50 -0.81 -1.18 -1.03 -0.85 -0.85 -0.50 -0.25 -0.07 -0.07 -0.02 -0.01 -0.02 -0.02 -0.03 -0.03 -0.03 -0.04 -0.16 -0.18 -0.18 -0.06 -0.03 -0.06 -0.17 -0.17 -0.34 -0.30 0.12 0.12 0.23 0.33 0.48 0.48 0.53 0.57 0.57 0.56 0.63 0.62 0.62 0.88 0.93 0.89 0.32 0.32 0.09 0.02 0.00 0.00 -0.00 -0.01 -0.00 -0.00 0.00 0.01 0.01 0.01 0.00 0.00 0.00 0.00 0.00
-0.04 -0.04 -0.05 -0.04 -0.03 -0.03 -0.03 -0.02 -0.02 -0.02 -0.01 -0.01 -0.01 -0.01 -0.00 -0.00 -0.00 0.01 0.01 0.01 0.01 0.01 0.01 0.01 0.00 0.00 -0.01 -0.01 -0.00 -0.00 -0.02 -0.10 -0.12 -0.12 -0.08 -0.06 -0.06 -0.10 -0.14 -0.38 -0.38 -0.60 -0.75 -0.90 -0.75 -0.75 -0.72 -0.28 -0.08 -0.08 -0.00 0.00 0.00 0.00 -0.01 -0.03 -0.03 -0.08 -0.17 -0.20 -0.20 -0.18 -0.07 -0.11 -0.10 -0.10 -0.29 -0.23 -0.16 -0.16 0.29 0.39 0.45 0.45 0.57 0.55 0.55 0.56 0.67 0.74 0.74 0.77 0.83 0.91 0.82 0.82 0.10 0.01 0.00 0.00 0.00 -0.00 -0.00 -0.00 0.00 0.01 0.01 0.01 0.00 0.00 0.00 0.00 0.00
-0.04 -0.05 -0.05 -0.05 -0.05 -0.05 -0.04 -0.03 -0.03 -0.03 -0.01 -0.01 -0.01 -0.01 -0.00 0.00 0.00 0.00 0.01 0.01 0.01 0.01 0.01 0.01 -0.01 -0.01 -0.01 -0.01 0.00 0.00 -0.03 -0.07 -0.12 -0.12 -0.10 -0.08 -0.08 -0.11 -0.15 -0.32 -0.32 -0.44 -0.54 -0.67 -0.58 -0.58 -0.63 -0.29 -0.08 -0.08 0.00 0.00 0.00 0.00 0.00 -0.04 -0.04 -0.08 -0.11 -0.22 -0.22 -0.19 -0.12 -0.14 -0.13 -0.13 -0.12 -0.22 -0.15 -0.15 0.00 0.46 0.47 0.47 0.52 0.59 0.59 0.54 0.61 0.75 0.75 0.80 0.87 0.92 0.92 0.92 0.61 0.01 0.00 0.00 0.00 0.00 -0.00 -0.00 0.00 0.00 0.00 0.00 0.00 0.00 0.00 0.00 0.00
-0.05 -0.05 -0.06 -0.06 -0.05 -0.05 -0.04 -0.04 -0.04 -0.04 -0.02 -0.01 -0.01 -0.01 -0.00 0.00 0.00 0.00 0.01 0.01 0.01 0.01 0.01 0.01 0.01 0.01 -0.02 -0.01 0.00 0.00 -0.03 -0.07 -0.15 -0.15 -0.15 -0.12 -0.12 -0.12 -0.17 -0.24 -0.24 -0.32 -0.41 -0.41 -0.48 -0.48 -0.50 -0.46 -0.09 -0.09 0.00 0.00 0.00 0.00 0.00 -0.02 -0.02 -0.07 -0.12 -0.22 -0.22 -0.20 -0.14 -0.16 -0.14 -0.14 -0.15 -0.20 -0.15 -0.15 -0.07 0.14 0.40 0.40 0.48 0.55 0.55 0.56 0.63 0.67 0.67 0.80 0.88 0.81 0.92 0.92 0.70 0.33 0.00 0.00 0.00 0.00 -0.00 -0.00 0.00 0.00 0.00 0.00 0.00 0.00 0.00 0.00 0.00
-0.06 -0.06 -0.06 -0.05 -0.05 -0.05 -0.04 -0.04 -0.03 -0.03 -0.02 -0.02 -0.01 -0.01 -0.00 -0.00 -0.00 0.00 0.01 0.01 0.01 0.01 0.01 0.01 0.02 0.02 -0.02 -0.01 -0.00 -0.00 -0.03 -0.07 -0.10 -0.10 -0.18 -0.20 -0.20 -0.13 -0.18 -0.29 -0.29 -0.28 -0.37 -0.42 -0.45 -0.45 -0.47 -0.41 -0.09 -0.09 0.01 0.01 0.00 0.00 0.00 -0.01 -0.01 -0.07 -0.13 -0.14 -0.14 -0.20 -0.18 -0.15 -0.14 -0.14 -0.13 -0.14 -0.13 -0.13 -0.09 0.05 0.24 0.24 0.37 0.45 0.45 0.57 0.65 0.72 0.72 0.76 0.90 0.85 0.90 0.90 0.75 0.41 0.08 0.08 0.00 0.00 -0.00 -0.00 0.00 0.00 0.00 0.00 0.00 0.00 0.00 0.00 0.00
-0.06 -0.07 -0.07 -0.06 -0.06 -0.06 -0.05 -0.04 -0.04 -0.04 -0.02 -0.02 -0.02 -0.02 -0.01 -0.00 -0.00 0.00 0.01 0.02 0.02 0.01 0.01 0.02 0.02 0.02 -0.01 -0.01 -0.01 -0.01 -0.03 -0.07 -0.09 -0.09 -0.19 -0.22 -0.22 -0.18 -0.22 -0.27 -0.27 -0.34 -0.37 -0.39 -0.42 -0.42 -0.46 -0.38 -0.24 -0.24 0.01 0.01 0.01 0.01 0.00 0.00 0.00 0.00 -0.15 -0.17 -0.17 -0.18 -0.20 -0.16 -0.21 -0.21 -0.10 -0.13 -0.13 -0.13 -0.08 0.02 0.12 0.12 0.29 0.38 0.38 0.43 0.67 0.75 0.75 0.80 0.89 0.91 0.87 0.87 0.90 0.46 0.13 0.13 0.00 0.00 0.00 0.00 0.00 0.00 0.00 0.00 0.00 0.00 0.00 0.00 0.00
-0.08 -0.10 -0.12 -0.12 -0.09 -0.09 -0.08 -0.04 -0.05 -0.05 -0.05 -0.01 -0.01 -0.01 -0.01 -0.00 -0.00 0.01 0.01 0.01 0.01 0.01 -0.00 0.00 0.01 0.01 -0.01 -0.01 -0.02 -0.02 -0.04 -0.08 -0.11 -0.11 -0.17 -0.24 -0.24 -0.24 -0.25 -0.25 -0.25 -0.29 -0.37 -0.31 -0.36 -0.36 -0.45 -0.38 -0.26 -0.26 0.01 0.01 0.01 0.01 0.01 0.01 0.01 0.00 -0.15 -0.18 -0.18 -0.16 -0.24 -0.21 -0.18 -0.18 -0.13 -0.12 -0.11 -0.11 -0.09 0.03 0.12 0.12 0.15 0.32 0.32 0.37 0.45 0.77 0.77 0.87 0.91 0.93 0.87 0.87 0.87 0.76 0.18 0.18 0.01 0.00 0.00 0.00 0.00 0.00 0.00 0.00 0.00 0.00 0.00 0.00 0.00
-0.13 -0.15 -0.16 -0.15 -0.11 -0.11 -0.09 -0.08 -0.06 -0.06 -0.08 -0.02 -0.02 -0.02 -0.04 -0.03 -0.03 -0.01 0.00 -0.00 -0.00 -0.02 -0.03 -0.02 -0.01 -0.01 -0.02 -0.00 -0.02 -0.02 -0.02 -0.08 -0.12 -0.12 -0.13 -0.23 -0.23 -0.30 -0.26 -0.24 -0.24 -0.27 -0.27 -0.22 -0.24 -0.24 -0.38 -0.36 -0.26 -0.26 -0.09 0.00 0.00 0.00 0.00 0.00 0.00 0.00 -0.06 -0.27 -0.27 -0.18 -0.18 -0.28 -0.22 -0.22 -0.15 -0.13 -0.06 -0.06 -0.04 -0.03 0.13 0.13 0.13 0.15 0.15 0.38 0.48 0.60 0.60 0.89 0.94 1.00 0.91 0.91 0.84 0.78 0.56 0.56 0.02 0.00 0.00 0.00 0.00 0.00 0.00 0.00 0.00 0.00 0.00 0.00 0.00
-0.21 -0.16 -0.16 -0.12 -0.09 -0.09 -0.10 -0.12 -0.13 -0.13 -0.16 -0.12 -0.09 -0.09 -0.05 -0.03 -0.03 -0.02 -0.01 -0.01 -0.01 -0.02 -0.04 -0.02 -0.03 -0.03 -0.04 0.01 -0.01 -0.01 -0.02 -0.08 -0.11 -0.11 -0.13 -0.21 -0.21 -0.35 -0.39 -0.30 -0.30 -0.26 -0.28 -0.16 -0.16 -0.16 -0.23 -0.31 -0.25 -0.25 -0.07 0.00 0.00 0.00 0.00 0.00 0.00 0.00 -0.01 -0.26 -0.26 -0.28 -0.24 -0.11 -0.21 -0.21 -0.16 -0.13 -0.05 -0.05 0.02 -0.01 0.14 0.14 0.15 0.15 0.15 0.26 0.51 0.63 0.63 0.80 0.96 1.01 1.01 1.01 0.93 0.82 0.57 0.57 0.25 0.00 0.00 0.00 0.00 0.00 0.00 0.00 0.00 0.00 0.00 0.00 0.00
-0.26 -0.19 -0.18 -0.10 -0.08 -0.08 -0.10 -0.11 -0.16 -0.16 -0.24 -0.22 -0.16 -0.16 -0.12 -0.07 -0.07 -0.04 -0.05 -0.03 -0.03 -0.01 -0.03 -0.06 -0.02 -0.02 -0.02 0.01 0.00 0.00 -0.03 -0.05 -0.10 -0.10 -0.10 -0.19 -0.19 -0.34 -0.48 -0.46 -0.46 -0.31 -0.29 -0.26 -0.12 -0.12 -0.16 -0.19 -0.20 -0.20 -0.05 -0.00 0.00 0.00 0.00 0.00 0.00 0.00 0.00 -0.27 -0.27 -0.37 -0.29 -0.16 -0.16 -0.16 -0.18 -0.14 -0.17 -0.17 0.04 0.03 0.15 0.15 0.19 0.20 0.20 0.28 0.39 0.65 0.65 0.81 0.99 1.06 1.10 1.10 1.18 0.85 0.57 0.57 0.25 0.03 0.00 0.00 0.00 0.00 0.00 0.00 0.00 0.00 0.00 0.00 0.00
-0.31 -0.18 -0.14 -0.11 -0.05 -0.05 -0.12 -0.12 -0.22 -0.22 -0.27 -0.32 -0.12 -0.12 -0.10 -0.14 -0.14 -0.10 -0.09 -0.07 -0.07 -0.02 -0.03 -0.04 -0.02 -0.02 -0.00 -0.00 -0.01 -0.01 -0.02 -0.04 -0.09 -0.09 -0.12 -0.19 -0.19 -0.29 -0.45 -0.54 -0.54 -0.39 -0.31 -0.28 -0.10 -0.10 -0.11 -0.14 -0.08 -0.08 -0.03 -0.00 0.00 0.00 0.00 0.00 0.00 0.00 0.00 -0.21 -0.21 -0.45 -0.34 -0.22 -0.11 -0.11 -0.23 -0.08 -0.18 -0.18 -0.04 0.04 0.17 0.17 0.21 0.24 0.24 0.28 0.39 0.65 0.65 0.82 0.99 1.09 1.16 1.16 1.30 1.22 0.56 0.56 0.23 0.02 0.00 0.00 0.00 0.00 0.00 0.00 0.00 0.00 0.00 0.00 0.00
-0.38 -0.16 -0.17 -0.13 -0.10 -0.10 -0.11 -0.07 -0.20 -0.20 -0.28 -0.37 -0.16 -0.16 -0.12 -0.16 -0.16 -0.15 -0.12 -0.09 -0.09 -0.05 -0.03 -0.04 -0.01 -0.01 0.01 -0.01 -0.03 -0.03 -0.03 -0.04 -0.06 -0.06 -0.15 -0.18 -0.18 -0.18 -0.41 -0.55 -0.55 -0.64 -0.39 -0.26 -0.11 -0.11 -0.11 -0.11 -0.10 -0.10 -0.01 0.00 0.00 0.00 0.00 0.01 0.01 0.00 0.00 -0.08 -0.08 -0.38 -0.41 -0.28 -0.13 -0.13 -0.10 -0.02 -0.11 -0.11 -0.06 0.07 0.18 0.18 0.24 0.30 0.30 0.39 0.40 0.54 0.54 0.84 1.02 1.14 1.18 1.18 1.35 1.27 0.86 0.86 0.19 0.01 0.00 0.00 0.00 0.00 0.00 0.00 0.00 0.00 0.00 0.00 0.00
-0.38 -0.21 -0.20 -0.17 -0.18 -0.18 -0.47 -0.17 -0.09 -0.09 -0.26 -0.41 -0.34 -0.34 -0.21 -0.23 -0.23 -0.19 -0.14 -0.12 -0.12 -0.09 -0.07 -0.07 -0.02 -0.02 0.01 -0.00 -0.02 -0.02 -0.04 -0.06 -0.05 -0.05 -0.15 -0.15 -0.15 -0.15 -0.39 -0.59 -0.59 -0.67 -0.43 -0.24 -0.08 -0.08 -0.12 -0.13 -0.09 -0.09 -0.06 0.00 -0.00 -0.00 0.01 0.02 0.02 0.01 0.01 -0.01 -0.01 -0.22 -0.29 -0.39 -0.24 -0.24 -0.12 0.00 -0.01 -0.01 0.00 0.08 0.18 0.18 0.26 0.35 0.35 0.46 0.46 0.56 0.56 0.76 1.06 1.19 1.24 1.24 1.33 1.30 0.86 0.86 0.49 0.17 0.00 0.00 0.00 0.00 0.00 0.00 0.00 0.00 0.00 0.00 0.00
-0.27 -0.30 -0.31 -0.23 -0.27 -0.27 -1.15 -0.95 -0.36 -0.36 -0.32 -0.41 -0.47 -0.47 -0.41 -0.31 -0.31 -0.37 -0.28 -0.17 -0.17 -0.11 -0.10 -0.07 -0.04 -0.04 -0.01 0.01 -0.01 -0.01 -0.03 -0.10 -0.11 -0.11 -0.14 -0.10 -0.10 -0.09 -0.18 -0.67 -0.67 -0.87 -0.79 -0.25 -0.08 -0.08 -0.00 -0.05 -0.05 -0.05 -0.05 0.01 0.05 0.05 0.04 0.01 0.01 0.01 0.01 0.01 0.01 0.01 -0.11 -0.21 -0.24 -0.24 -0.20 -0.06 0.12 0.12 0.04 0.07 0.21 0.21 0.26 0.44 0.44 0.59 0.59 0.57 0.57 0.77 1.03 1.17 1.37 1.37 1.48 1.46 1.37 1.37 0.45 0.10 0.03 0.03 0.00 0.00 0.00 0.00 0.00 0.00 0.00 0.00 0.00
-0.24 -0.29 -0.30 -0.19 -0.27 -0.27 -1.99 -1.50 -0.41 -0.41 -0.33 -0.36 -0.47 -0.47 -0.46 -0.28 -0.28 -0.34 -0.34 -0.29 -0.29 -0.15 -0.10 -0.07 -0.05 -0.05 -0.03 -0.02 -0.02 -0.02 -0.03 -0.09 -0.11 -0.11 -0.14 -0.10 -0.10 -0.09 -0.20 -0.53 -0.53 -0.88 -0.89 -0.59 -0.08 -0.08 -0.02 -0.03 -0.01 -0.01 -0.01 0.01 0.02 0.02 0.01 0.01 0.01 0.01 0.01 0.01 0.01 0.01 -0.05 -0.11 -0.16 -0.16 -0.15 -0.12 0.09 0.09 0.11 0.05 0.17 0.17 0.29 0.44 0.44 0.67 0.64 0.58 0.58 0.61 0.99 1.22 1.30 1.30 1.57 1.54 1.38 1.38 0.97 0.08 0.01 0.01 0.00 0.00 0.00 0.00 0.00 0.00 0.00 0.00 0.00
-0.26 -0.29 -0.24 -0.13 -0.22 -0.22 -2.44 -1.35 -0.45 -0.45 -0.29 -0.42 -0.61 -0.61 -0.62 -0.33 -0.33 -0.34 -0.33 -0.34 -0.34 -0.19 -0.12 -0.08 -0.06 -0.06 -0.04 -0.04 -0.03 -0.03 -0.05 -0.07 -0.08 -0.08 -0.13 -0.17 -0.17 -0.16 -0.29 -0.52 -0.52 -0.91 -0.91 -0.64 -0.08 -0.08 -0.02 -0.02 0.00 0.00 0.01 0.03 0.02 0.02 0.01 0.01 0.01 0.01 0.01 0.01 0.01 0.03 0.03 -0.05 -0.08 -0.08 -0.05 -0.06 0.11 0.11 0.15 0.17 0.21 0.21 0.36 0.51 0.51 0.71 0.71 0.62 0.62 0.59 0.61 1.20 1.36 1.36 1.53 1.56 1.40 1.40 1.06 0.54 0.00 0.00 0.01 0.00 0.00 0.00 0.00 0.00 0.00 0.00 0.00
-0.43 -0.36 -0.21 -0.11 -0.22 -0.22 -0.98 -1.10 -0.51 -0.51 -0.37 -0.77 -1.16 -1.16 -0.99 -0.35 -0.35 -0.33 -0.27 -0.29 -0.29 -0.25 -0.15 -0.07 -0.06 -0.06 -0.06 -0.05 -0.06 -0.06 -0.07 -0.10 -0.07 -0.07 -0.09 -0.19 -0.19 -0.29 -0.35 -0.49 -0.49 -0.72 -0.93 -0.73 -0.36 -0.36 -0.03 -0.01 0.01 0.01 0.06 0.04 0.03 0.03 0.04 0.02 0.02 0.02 0.04 0.02 0.02 0.05 0.06 0.02 -0.02 -0.02 0.03 0.04 0.05 0.05 0.28 0.32 0.25 0.25 0.43 0.54 0.54 0.65 0.74 0.69 0.69 0.61 0.54 0.78 1.41 1.41 1.61 1.71 1.40 1.40 1.10 0.57 0.09 0.09 0.01 0.00 0.00 0.00 0.00 0.01 0.01 0.00 0.00
-0.80 -0.81 -0.39 -0.17 -0.36 -0.36 -0.69 -0.80 -0.60 -0.60 -0.51 -1.10 -1.40 -1.40 -1.35 -0.31 -0.31 -0.32 -0.23 -0.19 -0.19 -0.16 -0.12 -0.05 -0.05 -0.05 -0.07 -0.06 -0.10 -0.10 -0.09 -0.12 -0.14 -0.14 -0.09 -0.18 -0.18 -0.27 -0.43 -0.50 -0.50 -0.74 -0.92 -0.81 -0.46 -0.46 -0.14 -0.01 -0.00 -0.00 -0.00 0.07 0.05 0.05 0.05 0.04 0.04 0.05 0.07 0.06 0.06 0.09 0.10 0.04 0.02 0.02 0.07 0.11 0.17 0.17 0.37 0.42 0.38 0.38 0.39 0.56 0.56 0.58 0.70 0.78 0.78 0.63 0.58 0.67 1.14 1.14 1.68 1.74 1.69 1.69 1.50 0.57 0.18 0.18 0.00 0.01 0.01 0.00 0.00 0.00 0.00 0.01 0.00
-0.73 -0.85 -0.75 -0.23 -0.34 -0.34 -0.42 -0.60 -0.62 -0.62 -0.59 -0.89 -1.35 -1.35 -1.49 -0.95 -0.95 -0.29 -0.21 -0.19 -0.19 -0.14 -0.09 -0.09 -0.02 -0.02 -0.06 -0.07 -0.10 -0.10 -0.10 -0.16 -0.17 -0.17 -0.12 -0.21 -0.21 -0.31 -0.51 -0.63 -0.63 -0.85 -0.90 -0.88 -0.53 -0.53 -0.20 -0.01 0.00 0.00 0.00 -0.00 0.04 0.04 0.01 0.01 0.01 0.07 0.08 0.07 0.07 0.06 0.11 0.12 0.06 0.06 0.04 0.11 0.17 0.17 0.17 0.43 0.51 0.51 0.48 0.48 0.48 0.61 0.62 0.79 0.79 0.87 0.76 0.74 1.16 1.16 1.68 1.88 1.72 1.72 1.58 1.24 0.23 0.23 0.01 0.01 0.01 0.00 0.00 0.00 0.00 0.01 0.00
-0.59 -0.87 -0.87 -0.37 -0.30 -0.30 -0.33 -0.48 -0.59 -0.59 -0.58 -0.58 -1.20 -1.20 -1.83 -1.28 -1.28 -0.29 -0.23 -0.21 -0.21 -0.17 -0.09 -0.11 -0.02 -0.02 -0.03 -0.06 -0.10 -0.10 -0.11 -0.17 -0.16 -0.16 -0.14 -0.22 -0.22 -0.39 -0.56 -0.78 -0.78 -0.84 -0.98 -0.96 -0.67 -0.67 -0.25 -0.16 0.00 0.00 0.00 -0.01 -0.00 -0.00 -0.01 -0.01 -0.01 0.01 0.06 0.06 0.06 0.06 0.05 0.11 0.07 0.07 0.04 0.10 0.14 0.14 0.16 0.21 0.64 0.64 0.69 0.67 0.67 0.76 0.77 0.92 0.92 0.95 1.05 0.80 1.16 1.16 1.69 1.98 1.83 1.83 1.66 1.41 0.79 0.79 0.01 0.01 0.01 0.00 0.00 0.00 0.00 0.01 0.00
-0.43 -0.58 -0.78 -0.81 -0.44 -0.44 -0.34 -0.37 -0.52 -0.52 -0.60 -0.57 -0.87 -0.87 -1.40 -1.10 -1.10 -0.61 -0.33 -0.47 -0.47 -0.36 -0.14 -0.12 -0.06 -0.06 -0.02 -0.05 -0.07 -0.07 -0.05 -0.12 -0.12 -0.12 -0.19 -0.23 -0.23 -0.39 -0.72 -0.96 -0.96 -0.96 -1.06 -1.07 -0.79 -0.79 -0.44 -0.29 -0.09 -0.09 0.00 -0.01 -0.00 -0.00 -0.01 -0.01 -0.01 -0.00 0.01 0.06 0.06 0.04 0.04 0.02 0.05 0.05 0.03 0.04 0.09 0.09 0.13 0.21 0.47 0.47 0.72 0.73 0.73 0.88 0.77 0.87 0.87 1.04 1.16 1.11 1.17 1.17 1.69 2.04 2.20 2.20 1.86 1.47 0.92 0.92 0.36 0.02 0.02 0.00 0.00 0.00 0.00 0.01 0.00
-0.26 -0.50 -0.76 -1.13 -0.78 -0.78 -0.47 -0.36 -0.44 -0.44 -0.65 -0.69 -0.84 -0.84 -1.05 -0.88 -0.88 -0.80 -0.66 -0.69 -0.69 -0.49 -0.17 -0.15 -0.14 -0.14 -0.02 -0.06 -0.06 -0.06 -0.03 -0.06 -0.07 -0.07 -0.15 -0.31 -0.31 -0.35 -0.65 -0.63 -0.63 -1.12 -1.16 -1.29 -1.17 -1.17 -0.55 -0.50 -0.21 -0.21 0.02 0.01 -0.01 -0.01 0.01 -0.01 -0.01 -0.00 0.01 0.00 0.00 0.01 0.02 -0.00 0.03 0.03 0.02 0.03 0.02 0.02 0.09 0.23 0.57 0.57 0.73 0.85 0.85 0.93 0.88 0.84 0.84 1.10 1.17 1.26 1.13 1.13 1.65 2.15 2.16 2.16 2.06 1.49 0.96 0.96 0.46 0.15 0.15 0.01 0.00 0.00 0.00 0.00 0.01
-0.20 -0.45 -0.64 -1.00 -1.12 -1.12 -0.80 -0.40 -0.41 -0.41 -0.49 -0.59 -0.73 -0.73 -0.91 -0.89 -0.89 -0.97 -0.85 -0.80 -0.80 -0.64 -0.17 -0.13 -0.15 -0.15 -0.11 -0.07 -0.06 -0.06 -0.05 -0.07 -0.09 -0.09 -0.09 -0.27 -0.27 -0.34 -0.46 -0.62 -0.62 -0.82 -1.20 -1.52 -1.62 -1.62 -1.32 -0.89 -0.53 -0.53 -0.22 -0.00 0.00 0.00 0.00 0.01 0.01 0.01 0.01 0.00 0.00 0.00 0.01 -0.00 -0.02 -0.02 0.02 0.05 0.02 0.02 0.05 0.28 0.75 0.75 0.96 1.04 1.04 1.02 0.90 0.98 0.98 1.12 1.30 1.28 1.22 1.22 1.26 1.98 2.19 2.19 1.96 1.77 0.99 0.99 0.52 0.20 0.20 0.08 0.01 0.00 0.00 0.00 0.01
-0.14 -0.17 -0.43 -0.86 -1.15 -1.15 -1.03 -0.63 -0.37 -0.37 -0.45 -0.54 -0.47 -0.47 -0.68 -0.65 -0.65 -0.73 -0.58 -0.69 -0.69 -0.70 -0.47 -0.12 -0.08 -0.08 -0.16 -0.10 -0.10 -0.10 -0.05 -0.06 -0.10 -0.10 -0.10 -0.15 -0.15 -0.30 -0.73 -0.79 -0.79 -0.70 -0.88 -1.34 -1.71 -1.71 -1.70 -1.14 -0.92 -0.92 -0.47 -0.26 -0.12 -0.12 -0.00 -0.00 -0.00 0.01 0.01 0.00 0.00 0.00 0.01 0.00 -0.03 -0.03 -0.02 0.08 0.05 0.05 0.04 0.13 0.86 0.86 1.16 1.11 1.11 1.23 0.89 1.03 1.03 1.19 1.18 1.35 1.21 1.21 1.19 1.42 2.01 2.01 1.82 1.69 1.37 1.37 0.97 0.21 0.21 0.09 0.02 0.01 0.01 0.00 0.01
-0.04 -0.09 -0.22 -0.61 -1.08 -1.08 -1.16 -1.15 -0.66 -0.66 -0.44 -0.49 -0.47 -0.47 -0.48 -0.49 -0.49 -0.46 -0.42 -0.46 -0.46 -0.52 -0.51 -0.19 -0.13 -0.13 -0.13 -0.17 -0.11 -0.11 -0.08 -0.07 -0.08 -0.08 -0.10 -0.06 -0.06 -0.20 -0.72 -0.79 -0.79 -0.65 -0.60 -0.90 -1.44 -1.44 -1.18 -1.01 -0.93 -0.93 -0.71 -0.41 -0.24 -0.24 -0.05 -0.00 -0.00 0.00 0.01 -0.00 -0.00 0.00 0.01 -0.02 -0.04 -0.04 -0.01 0.02 0.06 0.06 0.04 0.14 0.40 0.40 1.30 1.40 1.40 1.40 1.21 0.98 0.98 1.13 1.16 1.26 1.32 1.32 1.32 1.29 1.68 1.68 1.76 1.62 1.34 1.34 0.96 0.53 0.53 0.11 0.04 0.01 0.01 0.00 0.00
-0.00 -0.04 -0.11 -0.30 -0.90 -0.90 -1.33 -1.47 -1.40 -1.40 -0.56 -0.45 -0.46 -0.46 -0.39 -0.41 -0.41 -0.36 -0.31 -0.33 -0.33 -0.35 -0.40 -0.41 -0.21 -0.21 -0.12 -0.12 -0.08 -0.08 -0.08 -0.09 -0.09 -0.09 -0.11 -0.15 -0.15 -0.19 -0.27 -0.74 -0.74 -0.79 -0.70 -0.70 -0.95 -0.95 -0.74 -0.77 -0.69 -0.69 -0.68 -0.41 -0.43 -0.43 -0.26 -0.03 -0.03 -0.00 -0.00 -0.00 -0.00 0.01 0.01 0.00 -0.02 -0.02 0.00 -0.00 0.02 0.02 0.06 0.17 0.46 0.46 0.89 1.60 1.60 1.67 1.33 1.06 1.06 1.14 1.11 1.29 1.36 1.36 1.34 1.36 1.64 1.64 1.73 1.65 1.31 1.31 0.93 0.53 0.53 0.23 0.04 0.01 0.01 0.00 0.00
-0.00 -0.01 -0.06 -0.13 -0.68 -0.68 -1.08 -1.47 -1.56 -1.56 -0.89 -0.56 -0.43 -0.43 -0.37 -0.46 -0.46 -0.43 -0.36 -0.28 -0.28 -0.28 -0.29 -0.29 -0.20 -0.20 -0.10 -0.07 -0.02 -0.02 -0.08 -0.10 -0.09 -0.09 -0.12 -0.20 -0.20 -0.21 -0.20 -0.49 -0.49 -0.65 -0.75 -0.86 -0.64 -0.64 -0.57 -0.63 -0.71 -0.71 -0.66 -0.51 -0.59 -0.59 -0.42 -0.15 -0.15 -0.04 -0.01 -0.02 -0.02 0.01 0.01 0.01 0.00 0.00 0.01 0.01 -0.00 -0.00 0.06 0.20 0.46 0.46 0.80 1.04 1.04 1.79 1.46 1.18 1.18 1.17 1.11 1.17 1.33 1.33 1.37 1.38 1.72 1.72 1.69 1.59 1.48 1.48 0.92 0.53 0.53 0.24 0.11 0.04 0.04 0.01 0.00
-0.00 -0.00 -0.02 -0.06 -0.12 -0.12 -0.59 -1.04 -1.24 -1.24 -1.17 -0.81 -0.56 -0.56 -0.42 -0.29 -0.29 -0.25 -0.31 -0.30 -0.30 -0.28 -0.24 -0.22 -0.20 -0.20 -0.10 -0.03 0.03 0.03 -0.02 -0.07 -0.06 -0.06 -0.09 -0.15 -0.15 -0.02 -0.06 -0.21 -0.21 -0.36 -0.43 -0.60 -0.37 -0.37 -0.55 -0.55 -0.79 -0.79 -0.85 -0.61 -0.49 -0.49 -0.35 -0.26 -0.26 -0.08 -0.04 -0.11 -0.11 -0.02 0.01 0.01 0.01 0.01 0.03 0.03 0.00 0.00 0.07 0.13 0.45 0.45 0.70 0.94 0.94 1.41 1.60 1.26 1.26 1.23 1.15 1.12 1.31 1.31 1.28 1.36 1.41 1.41 1.56 1.51 1.48 1.48 1.25 0.91 0.91 0.23 0.11 0.02 0.02 0.02 0.00
0.00 -0.00 -0.01 -0.03 -0.04 -0.04 -0.19 -0.56 -0.90 -0.90 -0.95 -0.71 -0.59 -0.59 -0.52 -0.30 -0.30 -0.29 -0.35 -0.29 -0.29 -0.26 -0.23 -0.15 -0.11 -0.11 -0.11 -0.02 0.04 0.04 0.05 -0.04 -0.10 -0.10 -0.10 -0.07 -0.07 0.11 0.09 -0.13 -0.13 -0.27 -0.14 -0.17 -0.10 -0.10 -0.55 -0.66 -0.57 -0.57 -0.60 -0.63 -0.50 -0.50 -0.30 -0.25 -0.25 -0.23 -0.10 -0.15 -0.15 -0.19 0.00 0.01 0.01 0.01 0.04 0.05 0.02 0.02 0.09 0.19 0.24 0.24 0.68 0.91 0.91 1.21 1.59 1.31 1.31 1.24 1.28 1.19 1.14 1.14 1.21 1.29 1.37 1.37 1.40 1.36 1.30 1.30 1.16 0.98 0.98 0.56 0.07 0.03 0.03 0.03 0.01
0.00 -0.00 -0.00 -0.01 -0.03 -0.03 -0.06 -0.18 -0.64 -0.64 -0.77 -0.55 -0.49 -0.49 -0.39 -0.34 -0.34 -0.25 -0.36 -0.40 -0.40 -0.27 -0.17 -0.13 -0.08 -0.08 -0.07 -0.01 0.05 0.05 0.02 -0.03 -0.09 -0.09 -0.08 -0.05 -0.05 0.12 0.13 -0.01 -0.01 -0.28 -0.13 -0.07 -0.13 -0.13 -0.12 -0.64 -0.41 -0.41 -0.33 -0.64 -0.78 -0.78 -0.48 -0.34 -0.34 -0.30 -0.30 -0.24 -0.24 -0.23 -0.23 -0.01 -0.01 -0.01 0.04 0.07 0.10 0.10 0.16 0.18 0.26 0.26 0.42 0.87 0.87 1.13 1.41 1.47 1.47 1.20 1.34 1.29 1.18 1.18 1.16 1.19 1.29 1.29 1.24 1.30 1.22 1.22 1.04 0.95 0.95 0.60 0.24 0.03 0.03 0.03 0.01
0.00 0.00 -0.00 -0.00 -0.01 -0.01 -0.02 -0.06 -0.22 -0.22 -0.87 -0.45 -0.40 -0.40 -0.35 -0.31 -0.31 -0.24 -0.30 -0.39 -0.39 -0.32 -0.19 -0.08 -0.05 -0.05 -0.00 0.02 0.07 0.07 0.04 0.01 -0.07 -0.07 -0.04 -0.03 -0.03 0.05 0.12 0.07 0.07 -0.10 -0.29 -0.12 -0.29 -0.29 -0.20 -0.13 -0.24 -0.24 -0.20 -0.11 -0.42 -0.42 -0.71 -0.40 -0.40 -0.24 -0.18 -0.24 -0.24 -0.32 -0.32 -0.29 -0.03 -0.03 0.03 0.08 0.13 0.13 0.15 0.21 0.27 0.27 0.46 0.71 0.71 1.10 1.28 1.34 1.34 1.23 1.16 1.36 1.29 1.29 1.21 1.15 1.16 1.16 1.11 1.15 1.11 1.11 0.91 0.93 0.93 0.63 0.27 0.07 0.07 0.02 0.01
0.00 0.00 0.00 -0.00 -0.00 -0.00 -0.02 -0.02 -0.09 -0.09 -0.59 -0.45 -0.35 -0.35 -0.28 -0.26 -0.26 -0.24 -0.25 -0.30 -0.30 -0.28 -0.24 -0.11 -0.03 -0.03 0.00 0.04 0.09 0.09 0.08 0.02 -0.08 -0.08 -0.02 0.03 0.03 0.06 0.09 0.07 0.07 -0.01 -0.18 -0.25 -0.39 -0.39 -0.34 -0.19 0.03 0.03 -0.00 -0.10 -0.22 -0.22 -0.47 -0.46 -0.46 -0.22 -0.26 -0.20 -0.20 -0.29 -0.43 -0.43 -0.36 -0.36 -0.08 0.02 0.11 0.11 0.11 0.21 0.25 0.25 0.45 0.67 0.67 0.95 1.16 1.23 1.23 1.13 1.11 1.26 1.37 1.37 1.28 1.17 1.15 1.15 1.14 1.03 0.97 0.97 0.80 0.80 0.80 0.86 0.31 0.10 0.10 0.01 0.03